TimeCDT,TemperatureF,Dew PointF,Humidity,Sea Level PressureIn,VisibilityMPH,Wind Direction,Wind SpeedMPH,Gust SpeedMPH,PrecipitationIn,Events,Conditions,WindDirDegrees,DateUTC
12:53 AM,68.0,57.0,68,30.06,10.0,South,4.6,-,N/A,,Clear,180,2013-05-27 05:53:00
1:53 AM,66.9,57.0,70,30.06,10.0,South,4.6,-,N/A,,Clear,180,2013-05-27 06:53:00
2:53 AM,66.0,55.9,70,30.05,10.0,South,3.5,-,N/A,,Clear,180,2013-05-27 07:53:00
3:53 AM,66.0,55.0,68,30.05,10.0,South,4.6,-,N/A,,Clear,190,2013-05-27 08:53:00
4:53 AM,64.9,55.0,70,30.05,10.0,South,4.6,-,N/A,,Clear,180,2013-05-27 09:53:00
5:53 AM,66.0,55.0,68,30.06,10.0,SSW,8.1,-,N/A,,Partly Cloudy,210,2013-05-27 10:53:00
6:53 AM,66.9,57.0,70,30.07,10.0,SSW,8.1,-,N/A,,Partly Cloudy,210,2013-05-27 11:53:00
7:53 AM,70.0,57.9,65,30.06,10.0,SSW,6.9,-,N/A,,Clear,210,2013-05-27 12:53:00
8:53 AM,75.0,61.0,62,30.04,10.0,SSW,9.2,-,N/A,,Clear,210,2013-05-27 13:53:00
9:53 AM,78.1,61.0,56,30.04,10.0,SSW,6.9,-,N/A,,Clear,210,2013-05-27 14:53:00
10:53 AM,80.1,60.1,50,30.03,10.0,SW,10.4,18.4,N/A,,Clear,220,2013-05-27 15:53:00
11:53 AM,82.0,62.1,51,30.02,10.0,SSW,11.5,20.7,N/A,,Clear,210,2013-05-27 16:53:00
12:53 PM,82.9,63.0,51,29.99,10.0,South,12.7,20.7,N/A,,Clear,190,2013-05-27 17:53:00
1:53 PM,82.0,64.9,56,30.01,10.0,SSW,9.2,19.6,N/A,,Mostly Cloudy,210,2013-05-27 18:53:00
2:53 PM,82.9,66.9,58,29.99,10.0,SW,10.4,-,N/A,,Mostly Cloudy,220,2013-05-27 19:53:00
3:53 PM,84.0,66.9,56,29.96,10.0,SSW,10.4,16.1,N/A,,Mostly Cloudy,210,2013-05-27 20:53:00
4:53 PM,82.0,66.0,58,29.95,10.0,South,9.2,21.9,N/A,,Mostly Cloudy,190,2013-05-27 21:53:00
5:53 PM,81.0,66.0,60,29.96,10.0,SSW,5.8,-,N/A,,Mostly Cloudy,200,2013-05-27 22:53:00
6:53 PM,80.1,64.0,58,29.96,10.0,South,5.8,-,N/A,,Mostly Cloudy,190,2013-05-27 23:53:00
7:53 PM,78.1,60.1,54,29.92,10.0,South,8.1,-,N/A,,Clear,180,2013-05-28 00:53:00
8:53 PM,75.0,57.9,55,29.92,10.0,SSE,9.2,-,N/A,,Clear,160,2013-05-28 01:53:00
9:53 PM,75.0,57.0,53,29.91,10.0,South,8.1,-,N/A,,Clear,180,2013-05-28 02:53:00
10:53 PM,73.0,57.0,57,29.94,10.0,South,3.5,-,N/A,,Clear,180,2013-05-28 03:53:00
11:53 PM,70.0,59.0,68,29.94,10.0,South,5.8,-,N/A,,Clear,170,2013-05-28 04:53:00